TimeHST,TemperatureF,Dew PointF,Humidity,Sea Level PressureIn,VisibilityMPH,Wind Direction,Wind SpeedMPH,Gust SpeedMPH,PrecipitationIn,Events,Conditions,WindDirDegrees,DateUTC
12:56 AM,68.0,68.0,100,29.98,10.0,Calm,Calm,-,N/A,,Scattered Clouds,0,2013-12-02 10:56:00
1:56 AM,68.0,65.8,93,29.97,10.0,ENE,3.5,-,N/A,,Mostly Cloudy,70,2013-12-02 11:56:00
2:56 AM,66.9,63.9,90,29.96,10.0,East,4.6,-,N/A,,Clear,90,2013-12-02 12:56:00
3:56 AM,66.9,64.9,93,29.96,10.0,Calm,Calm,-,N/A,,Clear,0,2013-12-02 13:56:00
4:56 AM,65.8,64.9,97,29.96,10.0,Calm,Calm,-,N/A,,Scattered Clouds,0,2013-12-02 14:56:00
5:04 AM,66.2,66.2,100,30.02,10.0,NE,3.5,-,N/A,,Mostly Cloudy,50,2013-12-02 15:04:00
5:46 AM,68.0,66.2,94,30.03,10.0,Calm,Calm,-,N/A,,Scattered Clouds,0,2013-12-02 15:46:00
5:56 AM,68.0,66.9,96,29.97,10.0,Calm,Calm,-,N/A,,Partly Cloudy,0,2013-12-02 15:56:00
6:56 AM,68.0,68.0,100,30.00,10.0,Calm,Calm,-,N/A,,Clear,0,2013-12-02 16:56:00
7:56 AM,68.0,68.0,100,30.01,10.0,ENE,3.5,-,N/A,,Partly Cloudy,60,2013-12-02 17:56:00
8:56 AM,72.9,68.0,85,30.02,10.0,Calm,Calm,-,N/A,,Mostly Cloudy,0,2013-12-02 18:56:00
9:56 AM,79.9,66.9,64,30.01,10.0,West,4.6,-,N/A,,Scattered Clouds,260,2013-12-02 19:56:00
10:56 AM,75.9,65.8,71,30.01,10.0,WSW,3.5,-,0.00,Rain,Light Rain,240,2013-12-02 20:56:00
11:43 AM,75.2,68.0,78,30.05,10.0,SSE,3.5,-,0.00,,Overcast,150,2013-12-02 21:43:00
11:56 AM,75.9,68.0,76,29.99,10.0,Calm,Calm,-,0.00,,Overcast,0,2013-12-02 21:56:00
12:44 PM,73.4,68.0,83,30.03,7.0,West,4.6,-,0.00,Rain,Light Rain,260,2013-12-02 22:44:00
12:56 PM,72.9,68.9,87,29.96,10.0,WSW,5.8,-,0.00,Rain,Light Rain,250,2013-12-02 22:56:00
1:14 PM,73.4,68.0,83,30.01,10.0,West,5.8,-,0.00,,Overcast,270,2013-12-02 23:14:00
1:56 PM,75.2,68.0,78,30.00,10.0,Calm,Calm,-,N/A,,Overcast,0,2013-12-02 23:56:00
2:36 PM,75.2,66.2,73,29.99,10.0,Calm,Calm,-,N/A,,Overcast,0,2013-12-03 00:36:00
2:56 PM,77.0,68.0,74,29.93,10.0,Calm,Calm,-,N/A,,Overcast,0,2013-12-03 00:56:00
3:13 PM,78.8,66.2,65,29.98,10.0,Variable,3.5,-,N/A,,Overcast,0,2013-12-03 01:13:00
3:56 PM,79.0,66.9,66,29.92,10.0,WNW,3.5,-,N/A,,Overcast,300,2013-12-03 01:56:00
4:46 PM,73.4,68.0,83,29.99,9.0,NW,4.6,-,0.00,Rain,Light Rain,320,2013-12-03 02:46:00
4:56 PM,71.6,69.8,94,30.00,10.0,Calm,Calm,-,N/A,Rain,Light Rain,0,2013-12-03 02:56:00
5:19 PM,71.6,69.8,94,30.00,5.0,Calm,Calm,-,0.02,Rain,Light Rain,0,2013-12-03 03:19:00
5:35 PM,71.6,69.8,94,30.00,10.0,Calm,Calm,-,0.02,Rain,Light Rain,0,2013-12-03 03:35:00
5:45 PM,69.8,69.8,100,30.01,10.0,South,4.6,-,0.02,,Overcast,170,2013-12-03 03:45:00
5:56 PM,70.0,68.9,96,29.96,10.0,South,3.5,-,0.02,,Overcast,170,2013-12-03 03:56:00
6:30 PM,69.8,69.8,100,30.02,10.0,East,4.6,-,N/A,,Mostly Cloudy,90,2013-12-03 04:30:00
6:46 PM,69.8,69.8,100,30.02,10.0,Calm,Calm,-,0.00,Rain,Light Rain,0,2013-12-03 04:46:00
6:56 PM,68.9,68.9,100,29.97,10.0,East,3.5,-,0.00,,Mostly Cloudy,80,2013-12-03 04:56:00
7:56 PM,68.9,68.9,100,29.99,10.0,Calm,Calm,-,N/A,,Partly Cloudy,0,2013-12-03 05:56:00
8:56 PM,68.9,68.9,100,30.00,10.0,ESE,3.5,-,N/A,,Clear,110,2013-12-03 06:56:00
9:56 PM,66.9,66.9,100,29.99,10.0,Calm,Calm,-,N/A,,Mostly Cloudy,0,2013-12-03 07:56:00
10:20 PM,66.2,66.2,100,30.06,10.0,Calm,Calm,-,N/A,,Scattered Clouds,0,2013-12-03 08:20:00
10:56 PM,65.8,65.8,100,29.99,10.0,North,5.8,-,N/A,,Clear,10,2013-12-03 08:56:00
11:56 PM,66.9,66.9,100,29.99,10.0,NE,3.5,-,N/A,,Clear,50,2013-12-03 09:56:00